Fermer
METAR de LFBA [Agen]
LFBA 261330Z AUTO 33007KT 290V020 CAVOK 28/16 Q1021 NOSIG
Agen : LFBA 261330Z AUTO 33007KT 290V020 CAVOK 28/16 Q1021 NOSIG | Bergerac : LFBE 261330Z AUTO 26008KT 220V300 CAVOK 29/14 Q1021 NOSIG | Bordeaux Merignac : LFBD 261330Z AUTO 31009KT 280V350 CAVOK 29/14 Q1021 NOSIG
METAR LFBA
Bienvenue sur le site de l'Aéroclub de Gascogne
 Faire un vol d'initiation, un baptême de l'air, apprendre à piloter, se perfectionner.

Vous êtes sur le marmandais et vous souhaitez apprendre à piloter, faire un vol d'initiation, un baptême de l'air ? Vous trouverez sur notre site toutes les informations nécessaires.

Si malgré cela vous avez besoin de plus de renseignements, contactez-nous.

Suivez-nous sur facebook !

L'Aéroclub de Gascogne est une association loi 1901 reconnue d'utilité publique.
Son fonctionnement est assuré par des bénévoles.

Nous sommes un organisme de formation approuvé pour vous former au pilotage.

 
 Vous souhaitez nous rendre visite en avion ? Cliquez ici.